Regional Weather Roundup
Issued by NWS

Home | Current Version | Previous Version | Graphics & Text | Print | Product List | Glossary On
Versions: 1 2 3 4 5 6 7 8 9 10 11 12 13 14 15 16 17 18 19 20 21 22 23 24 25 26 27 28 29 30 31 32 33 34 35 36 37 38 39 40 41 42 43 44 45 46 47 48 49 50
971
ASUS43 KMPX 161210
RWRMN
WEATHER ROUNDUP FOR MINNESOTA
NATIONAL WEATHER SERVICE TWIN CITIES/CHANHASSEN MN
600 AM CST SAT DEC 16 2017


NOTE: "FAIR" INDICATES FEW OR NO CLOUDS BELOW 12,000 FEET WITH NO
SIGNIFICANT WEATHER AND/OR OBSTRUCTIONS TO VISIBILITY. N/A MEANS
CURRENT SKY AND/OR WEATHER CONDITIONS ARE NOT AVAILABLE.

MNZ060>063-068>070-161300-
   Twin Cities Metro

CITY           SKY/WX    TMP DP  RH WIND       PRES   REMARKS
TWIN CITIES    CLOUDY    27  25  92 E7        29.71R WCI  19
6HR MIN TEMP:  27; 6HR MAX TEMP:  31;

ST PAUL        CLOUDY    25  23  92 E3        29.73R
CRYSTAL        CLOUDY    23  19  85 NE6       29.70R WCI  16
BLAINE         CLOUDY    25  25 100 NE6       29.72R WCI  18
LAKEVILLE      CLOUDY    25  25 100 E6        29.71R WCI  18
EDEN PRAIRIE   CLOUDY    27  24  89 NE8       29.70R WCI  19
6HR MIN TEMP:  27; 6HR MAX TEMP:  31;

SOUTH ST PAUL  CLOUDY    26  24  95 E3        29.72R
LAKE ELMO      FAIR      25  23  93 NE8       29.72R WCI  16
$$
MNZ001>005-007-008-013>017-022>024-027-028-161300-
   Northwest Minnesota

CITY           SKY/WX    TMP DP  RH WIND       PRES   REMARKS
BEMIDJI        LGT SNOW  15  11  86 E7        29.73R WCI   5
HALLOCK        CLOUDY    16  10  79 E12       29.76R WCI   3
ROSEAU         CLOUDY    10   5  79 E12       29.79R WCI  -4
WARROAD        FLURRIES   7   3  85 E15       29.80R WCI -11
THIEF RVR FALL FLURRIES  16  12  84 E13       29.75R WCI   2
CROOKSTON      CLOUDY    21  18  86 E8        29.74R WCI  12
FOSSTON        CLOUDY    18  16  93 SE7       29.73R WCI   8
DETROIT LAKES  CLOUDY    23  21  93 E7        29.70S WCI  15
MOORHEAD       CLOUDY    25  21  86 CALM      29.73R
PARK RAPIDS    CLOUDY    19  15  84 E7        29.72R WCI  10
MAHNOMEN       CLOUDY    21  18  88 SE5       29.71R WCI  15
$$
MNZ006-009>011-018-025>026-161300-
   North Central Minnesota

CITY           SKY/WX    TMP DP  RH WIND       PRES   REMARKS
BAUDETTE       CLOUDY     5   1  83 E12       29.79F WCI -11
FLAG ISLAND    FLURRIES   1  -4  78 E6        29.83R WCI -10
INTL FALLS     CLOUDY     2  -4  76 E9        29.84S WCI -13
6HR MIN TEMP:   2; 6HR MAX TEMP:   4;

WASKISH        CLOUDY     9   7  92 E8        29.77S WCI  -4
BIG FORK       CLOUDY     9   5  85 E5        29.78R WCI   0
LONGVILLE      CLOUDY    18  12  79 CALM      29.75R
GRAND RAPIDS   FLURRIES  14  11  87 SE5       29.79R WCI   6
CRANE LAKE     CLOUDY    -2  -6  84 CALM      29.89R
ORR            CLOUDY     3  -2  78 CALM      29.79S
COOK           CLOUDY     3   0  85 E6        29.80F WCI  -8
WALKER         CLOUDY    16  13  87 E5        29.75R WCI   9
$$
MNZ012-019>021-037-161300-
   Northeast Minnesota

CITY           SKY/WX    TMP DP  RH WIND       PRES   REMARKS
DULUTH         CLOUDY    17  13  84 SE14      29.79R WCI   3
6HR MIN TEMP:  14; 6HR MAX TEMP:  17; 6HR PCP:  0.01;

ELY            CLOUDY     0  -4  85 CALM      29.84R
HIBBING        CLOUDY    10   7  87 E7        29.77F WCI  -1
EVELETH        CLOUDY    10   4  80 NE7       29.79F WCI  -2
DULUTH HARBOR  CLOUDY    21  14  73 E12       29.87R WCI   9
TWO HARBORS    CLOUDY    19  16  86 NE6       29.82R WCI  11
SILVER BAY     FLURRIES  18  16  93 NE6       29.83R WCI   9
GRAND MARAIS     N/A      9   4  80 NE7G17    29.94R WCI  -2
G MARAIS ARPRT CLOUDY    -2  -8  78 N7        29.83R WCI -16
$$
MNZ029>031-032-039>041-046>048-054>057-064-161300-
   West Central Minnesota

CITY           SKY/WX    TMP DP  RH WIND       PRES   REMARKS
FERGUS FALLS   CLOUDY    25  21  86 E7        29.73R WCI  17
WHEATON        MOCLDY    27  25  93 CALM      29.71R
MORRIS         CLOUDY    27  27 100 E6        29.68R FOG     WCI  20
ALEXANDRIA     CLOUDY    23  22  96 E9        29.70R FOG     WCI  13
ELBOW LAKE     MOCLDY    26  24  96 E8        29.71R FOG     WCI  17
WADENA         CLOUDY    19  18  93 E9        29.71R WCI   9
GLENWOOD       CLOUDY    23  21  93 E10       29.69R FOG     WCI  12
APPLETON         N/A     30  28  93 CALM      29.69R
BENSON         CLOUDY    28  27  93 E6        29.70R WCI  22
ORTONVILLE     CLOUDY    30  28  93 CALM      29.69R
MADISON        CLOUDY    36  30  80 W5        29.69R
WILLMAR        CLOUDY    28  27  93 E7        29.69R FOG     WCI  21
$$
MNZ033>034-036-042>043-049>051-058-059-161300-
   Central Minnesota

CITY           SKY/WX    TMP DP  RH WIND       PRES   REMARKS
ST CLOUD       CLOUDY    21  19  92 NE8       29.73R WCI  11
6HR MIN TEMP:  20; 6HR MAX TEMP:  23;

SAUK CENTRE    CLOUDY    22  20  93 E6        29.72R WCI  15
PAYNESVILLE    CLOUDY    24  24 100 NE7       29.71R FOG     WCI  16
AITKIN         CLOUDY    18  12  79 E7        29.75R WCI   8
PINE RIVER     CLOUDY    16  12  86 E8        29.78R WCI   5
BRAINERD       CLOUDY    20  15  81 VRB6      29.75R WCI  12
STAPLES        CLOUDY    19  16  86 E7        29.73R WCI  10
LITTLE FALLS   CLOUDY    23  16  74 E5        29.74R WCI  17
LITCHFIELD     CLOUDY    27  27 100 E6        29.69R FOG     WCI  20
BUFFALO        CLOUDY    23  21  93 N6        29.73R WCI  16
MAPLE LAKE     CLOUDY    24  23  96 NE7       29.73R WCI  16
HUTCHINSON     CLOUDY    29  28  99 NE9       29.70R FOG     WCI  20
$$
MNZ037-044-045-052-053-161300-
   East Central Minnesota

CITY           SKY/WX    TMP DP  RH WIND       PRES   REMARKS
PRINCETON      CLOUDY    21  19  93 NE6       29.74R WCI  14
MORA           CLOUDY    19  16  86 NE6       29.78R WCI  11
CAMBRIDGE      CLOUDY    23  16  74 NE6       29.75R WCI  16
RUSH CITY      CLOUDY    21  17  86 NE6       29.77R WCI  13
MOOSE LAKE     CLOUDY    19  12  73 E5        29.79R WCI  13
HINCKLEY       CLOUDY    21  18  86 NE6       29.79R WCI  14
CLOQUET        CLOUDY    16   9  73 E10       29.79R WCI   3
MCGREGOR       CLOUDY    19  14  79 E6        29.78R WCI  11
$$
MNZ071>073-080-081-089-090-097-098-161300-
   Southwest Minnesota

CITY           SKY/WX    TMP DP  RH WIND       PRES   REMARKS
MONTEVIDEO     CLOUDY    28  27  93 CALM      29.69R
GRANITE FALLS  CLOUDY    28  26  93 CALM      29.70R
CANBY          CLOUDY    32  28  83 NW7       29.70R WCI  26
MARSHALL       CLOUDY    30  25  81 W10       29.69R WCI  21
REDWOOD FALLS  CLOUDY    28  26  92 NE3       29.68R
OLIVIA         CLOUDY    30  28  93 E5        29.68R WCI  25
PIPESTONE      CLOUDY    28  25  86 CALM      29.69R
WINDOM           N/A     28  18  64 SW6       29.68R WCI  22
WORTHINGTON    CLOUDY    30  25  81 NW9       29.68R WCI  22
JACKSON        CLOUDY    32  27  80 NW8       29.67S WCI  25
SLAYTON        CLOUDY    31  26  83 W9        29.69R WCI  23
$$
MNZ065>067-074>077-082>085-091>093-161300-
   South Central Minnesota

CITY           SKY/WX    TMP DP  RH WIND       PRES   REMARKS
MANKATO        PTCLDY    29  26  89 SW3       29.69R
NEW ULM        CLOUDY    27  25  93 CALM      29.68R
ST JAMES       CLOUDY    28  25  86 SW6       29.70R WCI  22
FAIRMONT       CLOUDY    31  26  82 NW6       29.68R WCI  25
GLENCOE        CLOUDY    29  30 100 NE3       29.69R FOG
FARIBAULT      CLOUDY    25  23  93 CALM      29.70R
OWATONNA       CLOUDY    28  25  86 CALM      29.68R
WASECA         CLOUDY    27  23  86 CALM      29.71R
ALBERT LEA     CLOUDY    28  21  74 CALM      29.69R
$$
MNZ078>079-086>088-094>096-161300-
   Southeast Minnesota

CITY           SKY/WX    TMP DP  RH WIND       PRES   REMARKS
ROCHESTER      CLOUDY    27  24  89 S6        29.69R WCI  20
6HR MIN TEMP:  27; 6HR MAX TEMP:  31;

RED WING       CLOUDY    27  21  80 E6        29.72R WCI  20
STANTON        CLOUDY    29  26  89 E3        29.70R
DODGE CENTER   CLOUDY    27  23  86 CALM      29.67R
WINONA         CLOUDY    30  28  93 CALM      29.74R
AUSTIN         CLOUDY    27  21  80 SE3       29.68R
PRESTON        CLOUDY    29  23  78 SW3       29.70R
$$
ABBREVIATIONS USED IN REMARKS
   TC - TEMPERATURES IN CELSIUS
  WCI - WIND CHILL INDEX
   HX - HEAT INDEX
  VSB - VISIBILITY
$$




USA.gov is the U.S. government's official web portal to all federal, state and local government web resources and services.